| time (UTC) | temp C | wind direction | speed KPH | gust KPH | rain 1hr cm | rain 24hr cm | rain mn cm | humidity % | barometer mb |
| 20260509095531 | 23 | 146 | 0.0 | 0.0 | 0.00 | 0.23 | 0.00 | 94 | 1009.4 |
| 20260509094553 | 23 | 150 | 0.0 | 0.0 | 0.00 | 0.23 | 0.00 | 94 | 1009.0 |
| 20260509094102 | 23 | 154 | 0.0 | 3.2 | 0.00 | 0.23 | 0.00 | 94 | 1008.9 |
| 20260509093604 | 23 | 155 | 0.0 | 3.2 | 0.00 | 0.23 | 0.00 | 94 | 1008.8 |
| 20260509093035 | 23 | 155 | 0.0 | 4.8 | 0.00 | 0.23 | 0.00 | 94 | 1008.8 |
| 20260509092546 | 23 | 155 | 1.6 | 8.0 | 0.00 | 0.23 | 0.00 | 94 | 1008.8 |
| 20260509091542 | 23 | 155 | 4.8 | 9.7 | 0.00 | 0.23 | 0.00 | 94 | 1008.9 |
| 20260509091053 | 23 | 150 | 6.4 | 9.7 | 0.00 | 0.23 | 0.00 | 94 | 1008.7 |
| 20260509090113 | 23 | 150 | 0.0 | 3.2 | 0.00 | 0.23 | 0.00 | 94 | 1009.0 |
| 20260509085522 | 23 | 150 | 0.0 | 4.8 | 0.00 | 0.23 | 0.00 | 94 | 1009.0 |
| 20260509085127 | 23 | 150 | 3.2 | 12.9 | 0.00 | 0.23 | 0.00 | 94 | 1008.9 |
| 20260509084531 | 23 | 148 | 6.4 | 12.9 | 0.00 | 0.23 | 0.00 | 94 | 1008.9 |
| 20260509084047 | 23 | 148 | 8.0 | 12.9 | 0.00 | 0.23 | 0.00 | 94 | 1009.1 |
| 20260509083049 | 23 | 173 | 6.4 | 9.7 | 0.00 | 0.23 | 0.00 | 93 | 1009.3 |
| 20260509082554 | 23 | 189 | 6.4 | 9.7 | 0.00 | 0.23 | 0.00 | 93 | 1009.4 |
| 20260509082106 | 23 | 196 | 0.0 | 6.4 | 0.00 | 0.23 | 0.00 | 93 | 1009.6 |
| 20260509081523 | 23 | 150 | 0.0 | 0.0 | 0.00 | 0.23 | 0.00 | 93 | 1009.8 |
| 20260509081035 | 23 | 150 | 0.0 | 0.0 | 0.00 | 0.23 | 0.00 | 93 | 1009.9 |
| 20260509080053 | 23 | 150 | 0.0 | 3.2 | 0.00 | 0.23 | 0.00 | 93 | 1009.7 |
| 20260509075605 | 23 | 150 | 0.0 | 0.0 | 0.00 | 0.23 | 0.00 | 93 | 1009.7 |
| 20260509074606 | 23 | 150 | 0.0 | 0.0 | 0.00 | 0.23 | 0.00 | 93 | 1009.5 |
| 20260509074117 | 23 | 150 | 0.0 | 1.6 | 0.00 | 0.23 | 0.00 | 93 | 1009.5 |
| 20260509073620 | 23 | 150 | 0.0 | 4.8 | 0.00 | 0.23 | 0.00 | 93 | 1009.4 |
| 20260509073047 | 23 | 150 | 1.6 | 8.0 | 0.00 | 0.23 | 0.00 | 93 | 1009.5 |
| 20260509072551 | 23 | 150 | 3.2 | 8.0 | 0.00 | 0.23 | 0.00 | 93 | 1009.5 |
| 20260509071611 | 23 | 150 | 4.8 | 11.3 | 0.00 | 0.23 | 0.00 | 93 | 1009.5 |
| 20260509071027 | 23 | 148 | 4.8 | 11.3 | 0.00 | 0.23 | 0.00 | 93 | 1009.5 |
| 20260509070027 | 23 | 163 | 8.0 | 14.5 | 0.00 | 0.23 | 0.00 | 93 | 1009.3 |
| 20260509065541 | 23 | 159 | 6.4 | 14.5 | 0.00 | 0.23 | 0.00 | 93 | 1009.1 |
| 20260509065024 | 23 | 144 | 9.7 | 12.9 | 0.00 | 0.23 | 0.00 | 93 | 1009.1 |
| 20260509064545 | 23 | 163 | 6.4 | 12.9 | 0.00 | 0.23 | 0.00 | 93 | 1009.2 |
| 20260509064028 | 23 | 149 | 6.4 | 11.3 | 0.00 | 0.23 | 0.00 | 92 | 1009.2 |
| 20260509063545 | 23 | 159 | 8.0 | 11.3 | 0.00 | 0.23 | 0.00 | 92 | 1009.1 |
| 20260509063044 | 23 | 150 | 6.4 | 11.3 | 0.00 | 0.23 | 0.00 | 92 | 1009.2 |
| 20260509062524 | 23 | 155 | 6.4 | 12.9 | 0.00 | 0.23 | 0.00 | 92 | 1009.1 |
| 20260509062032 | 23 | 144 | 8.0 | 16.1 | 0.00 | 0.23 | 0.00 | 92 | 1009.1 |
| 20260509061531 | 23 | 150 | 9.7 | 16.1 | 0.00 | 0.23 | 0.00 | 92 | 1009.0 |
| 20260509061041 | 23 | 139 | 6.4 | 17.7 | 0.00 | 0.23 | 0.00 | 92 | 1009.1 |
| 20260509060525 | 23 | 146 | 12.9 | 17.7 | 0.00 | 0.23 | 0.00 | 92 | 1009.2 |
| 20260509060022 | 23 | 161 | 11.3 | 20.9 | 0.00 | 0.23 | 0.00 | 92 | 1009.2 |
| 20260509055532 | 23 | 148 | 17.7 | 20.9 | 0.00 | 0.23 | 0.00 | 92 | 1009.4 |
| 20260509055022 | 23 | 144 | 12.9 | 19.3 | 0.00 | 0.23 | 0.00 | 92 | 1009.4 |
| 20260509054534 | 23 | 161 | 12.9 | 19.3 | 0.00 | 0.23 | 0.00 | 92 | 1009.5 |
| 20260509054025 | 23 | 153 | 11.3 | 16.1 | 0.00 | 0.23 | 0.00 | 92 | 1009.4 |
| 20260509053553 | 23 | 153 | 11.3 | 19.3 | 0.00 | 0.23 | 0.00 | 92 | 1009.4 |
| 20260509053033 | 23 | 144 | 12.9 | 20.9 | 0.00 | 0.23 | 0.00 | 92 | 1009.4 |
| 20260509052522 | 23 | 143 | 14.5 | 22.5 | 0.00 | 0.23 | 0.00 | 92 | 1009.3 |
| 20260509052037 | 23 | 155 | 16.1 | 22.5 | 0.00 | 0.23 | 0.00 | 92 | 1009.2 |
| 20260509051524 | 23 | 136 | 17.7 | 22.5 | 0.00 | 0.23 | 0.00 | 92 | 1009.1 |
| 20260509051053 | 23 | 148 | 11.3 | 19.3 | 0.00 | 0.23 | 0.00 | 92 | 1009.1 |
| 20260509050526 | 23 | 171 | 12.9 | 22.5 | 0.00 | 0.23 | 0.00 | 92 | 1009.0 |
| 20260509050041 | 23 | 161 | 12.9 | 22.5 | 0.00 | 0.23 | 0.23 | 92 | 1009.0 |
| 20260509045543 | 23 | 163 | 17.7 | 22.5 | 0.00 | 0.23 | 0.23 | 92 | 1009.0 |
| 20260509044611 | 23 | 144 | 8.0 | 17.7 | 0.00 | 0.23 | 0.23 | 92 | 1009.1 |
| 20260509044114 | 23 | 147 | 9.7 | 19.3 | 0.00 | 0.23 | 0.23 | 91 | 1009.1 |
| 20260509043525 | 23 | 134 | 11.3 | 22.5 | 0.00 | 0.23 | 0.23 | 91 | 1009.0 |
| 20260509042631 | 23 | 142 | 14.5 | 22.5 | 0.00 | 0.23 | 0.23 | 91 | 1009.0 |
| 20260509042112 | 23 | 148 | 14.5 | 22.5 | 0.00 | 0.23 | 0.23 | 91 | 1009.1 |
| 20260509041538 | 23 | 140 | 14.5 | 20.9 | 0.00 | 0.23 | 0.23 | 91 | 1009.2 |
| 20260509041041 | 23 | 149 | 12.9 | 19.3 | 0.00 | 0.23 | 0.23 | 91 | 1009.1 |
| 20260509040111 | 23 | 144 | 12.9 | 16.1 | 0.00 | 0.23 | 0.23 | 91 | 1009.3 |
| 20260509035553 | 23 | 139 | 8.0 | 14.5 | 0.00 | 0.23 | 0.23 | 91 | 1009.3 |
| 20260509034612 | 23 | 142 | 6.4 | 12.9 | 0.00 | 0.23 | 0.23 | 91 | 1009.1 |
| 20260509034127 | 23 | 143 | 4.8 | 12.9 | 0.00 | 0.23 | 0.23 | 91 | 1009.1 |
| 20260509033105 | 23 | 146 | 11.3 | 16.1 | 0.00 | 0.23 | 0.23 | 91 | 1009.1 |
| 20260509032616 | 23 | 149 | 11.3 | 17.7 | 0.00 | 0.23 | 0.23 | 90 | 1009.2 |
| 20260509032055 | 23 | 140 | 11.3 | 17.7 | 0.00 | 0.23 | 0.23 | 90 | 1009.2 |
| 20260509031526 | 23 | 144 | 11.3 | 16.1 | 0.00 | 0.23 | 0.23 | 90 | 1009.1 |
| 20260509031029 | 23 | 150 | 9.7 | 24.1 | 0.00 | 0.23 | 0.23 | 90 | 1009.1 |
| 20260509030058 | 23 | 142 | 9.7 | 16.1 | 0.00 | 0.23 | 0.23 | 89 | 1009.1 |
| 20260509025541 | 23 | 155 | 9.7 | 16.1 | 0.00 | 0.23 | 0.23 | 89 | 1008.9 |
| 20260509024612 | 23 | 157 | 4.8 | 11.3 | 0.00 | 0.23 | 0.23 | 89 | 1008.8 |
| 20260509024112 | 23 | 150 | 6.4 | 11.3 | 0.00 | 0.23 | 0.23 | 89 | 1008.7 |
| 20260509023558 | 23 | 150 | 6.4 | 14.5 | 0.00 | 0.23 | 0.23 | 89 | 1008.5 |
| 20260509023021 | 23 | 140 | 4.8 | 14.5 | 0.00 | 0.23 | 0.23 | 88 | 1008.3 |
| 20260509022531 | 23 | 126 | 6.4 | 11.3 | 0.00 | 0.23 | 0.23 | 88 | 1008.4 |
| 20260509021553 | 23 | 128 | 6.4 | 12.9 | 0.00 | 0.23 | 0.23 | 88 | 1008.4 |
| 20260509021105 | 23 | 139 | 6.4 | 14.5 | 0.00 | 0.23 | 0.23 | 88 | 1008.3 |
| 20260509020608 | 23 | 148 | 8.0 | 14.5 | 0.00 | 0.23 | 0.23 | 88 | 1008.3 |
| 20260509020038 | 24 | 146 | 8.0 | 12.9 | 0.00 | 0.23 | 0.23 | 88 | 1008.3 |
| 20260509015541 | 24 | 134 | 9.7 | 12.9 | 0.00 | 0.23 | 0.23 | 88 | 1008.3 |
| 20260509014542 | 24 | 143 | 9.7 | 14.5 | 0.00 | 0.23 | 0.23 | 87 | 1008.4 |
| 20260509014030 | 24 | 172 | 6.4 | 12.9 | 0.00 | 0.23 | 0.23 | 87 | 1008.5 |
| 20260509013051 | 24 | 142 | 4.8 | 12.9 | 0.00 | 0.23 | 0.23 | 86 | 1008.1 |
| 20260509012601 | 24 | 144 | 8.0 | 12.9 | 0.00 | 0.23 | 0.23 | 86 | 1008.0 |
| 20260509012106 | 25 | 138 | 8.0 | 14.5 | 0.00 | 0.23 | 0.23 | 86 | 1007.9 |
| 20260509011532 | 25 | 146 | 9.7 | 14.5 | 0.00 | 0.23 | 0.23 | 86 | 1008.0 |
| 20260509011040 | 25 | 153 | 8.0 | 12.9 | 0.00 | 0.23 | 0.23 | 86 | 1008.1 |
| 20260509010043 | 25 | 137 | 9.7 | 16.1 | 0.00 | 0.23 | 0.23 | 85 | 1008.1 |
| 20260509005554 | 25 | 134 | 4.8 | 8.0 | 0.00 | 0.23 | 0.23 | 85 | 1008.0 |
| 20260509005055 | 25 | 134 | 3.2 | 8.0 | 0.00 | 0.23 | 0.23 | 85 | 1007.9 |
| 20260509004526 | 25 | 136 | 4.8 | 8.0 | 0.00 | 0.23 | 0.23 | 85 | 1007.9 |
| 20260509004038 | 25 | 135 | 4.8 | 8.0 | 0.00 | 0.23 | 0.23 | 85 | 1008.1 |
| 20260509003057 | 25 | 128 | 3.2 | 8.0 | 0.00 | 0.23 | 0.23 | 84 | 1008.0 |
| 20260509002608 | 25 | 127 | 3.2 | 11.3 | 0.00 | 0.23 | 0.23 | 84 | 1008.0 |
| 20260509002115 | 25 | 115 | 4.8 | 11.3 | 0.00 | 0.23 | 0.23 | 84 | 1008.0 |
| 20260509001542 | 25 | 138 | 4.8 | 12.9 | 0.00 | 0.23 | 0.23 | 84 | 1008.1 |
| 20260509001046 | 25 | 144 | 4.8 | 9.7 | 0.00 | 0.23 | 0.23 | 84 | 1008.1 |
| 20260509000053 | 25 | 132 | 6.4 | 12.9 | 0.00 | 0.23 | 0.23 | 83 | 1008.1 |
| 20260508235613 | 25 | 135 | 6.4 | 11.3 | 0.00 | 0.23 | 0.23 | 83 | 1008.0 |
| 20260508235126 | 25 | 111 | 4.8 | 12.9 | 0.00 | 0.23 | 0.23 | 83 | 1007.9 |
| 20260508234023 | 25 | 125 | 6.4 | 11.3 | 0.00 | 0.23 | 0.23 | 83 | 1008.0 |
| 20260508233022 | 25 | 113 | 4.8 | 9.7 | 0.00 | 0.23 | 0.23 | 83 | 1008.1 |
| 20260508232538 | 25 | 96 | 3.2 | 12.9 | 0.00 | 0.23 | 0.23 | 83 | 1008.0 |
| 20260508231557 | 25 | 119 | 6.4 | 14.5 | 0.00 | 0.23 | 0.23 | 84 | 1008.0 |
| 20260508231110 | 25 | 79 | 8.0 | 14.5 | 0.00 | 0.23 | 0.23 | 83 | 1008.0 |
| 20260508230611 | 25 | 87 | 6.4 | 12.9 | 0.00 | 0.23 | 0.23 | 83 | 1008.1 |
| 20260508230037 | 25 | 126 | 6.4 | 14.5 | 0.00 | 0.23 | 0.23 | 83 | 1008.1 |
| 20260508225540 | 25 | 71 | 6.4 | 14.5 | 0.00 | 0.23 | 0.23 | 83 | 1008.0 |
| 20260508224540 | 25 | 117 | 8.0 | 12.9 | 0.00 | 0.23 | 0.23 | 83 | 1008.1 |
| 20260508224050 | 25 | 139 | 3.2 | 11.3 | 0.00 | 0.23 | 0.23 | 83 | 1008.2 |
| 20260508223612 | 25 | 90 | 6.4 | 11.3 | 0.00 | 0.23 | 0.23 | 83 | 1008.1 |
| 20260508223041 | 25 | 155 | 4.8 | 9.7 | 0.00 | 0.23 | 0.23 | 83 | 1008.2 |
| 20260508222551 | 25 | 84 | 4.8 | 9.7 | 0.00 | 0.23 | 0.23 | 83 | 1008.2 |
| 20260508221612 | 25 | 116 | 6.4 | 12.9 | 0.00 | 0.23 | 0.23 | 83 | 1008.3 |
| 20260508221053 | 25 | 146 | 4.8 | 8.0 | 0.00 | 0.23 | 0.23 | 83 | 1008.3 |
| 20260508220121 | 25 | 172 | 3.2 | 8.0 | 0.00 | 0.23 | 0.23 | 83 | 1008.3 |
| 20260508215602 | 25 | 171 | 3.2 | 11.3 | 0.00 | 0.23 | 0.23 | 84 | 1008.3 |
| 20260508215113 | 25 | 181 | 6.4 | 11.3 | 0.00 | 0.23 | 0.23 | 84 | 1008.4 |
| 20260508214530 | 25 | 144 | 4.8 | 11.3 | 0.00 | 0.23 | 0.23 | 83 | 1008.6 |
| 20260508213615 | 25 | 165 | 8.0 | 12.9 | 0.00 | 0.23 | 0.23 | 83 | 1008.6 |
| 20260508213024 | 25 | 146 | 4.8 | 8.0 | 0.00 | 0.23 | 0.23 | 83 | 1008.6 |
| 20260508212606 | 25 | 140 | 4.8 | 11.3 | 0.00 | 0.23 | 0.23 | 83 | 1008.7 |
| 20260508212116 | 25 | 138 | 6.4 | 11.3 | 0.00 | 0.23 | 0.23 | 83 | 1008.7 |
| 20260508211523 | 25 | 114 | 3.2 | 11.3 | 0.00 | 0.23 | 0.23 | 84 | 1008.8 |
| 20260508211028 | 25 | 100 | 6.4 | 11.3 | 0.00 | 0.23 | 0.23 | 84 | 1008.8 |
| 20260508210638 | 24 | 144 | 4.8 | 9.7 | 0.00 | 0.23 | 0.23 | 84 | 1008.8 |
| 20260508210036 | 24 | 182 | 3.2 | 6.4 | 0.00 | 0.23 | 0.23 | 84 | 1008.9 |
| 20260508205545 | 24 | 182 | 3.2 | 8.0 | 0.00 | 0.23 | 0.23 | 84 | 1009.0 |
| 20260508204606 | 24 | 143 | 4.8 | 11.3 | 0.00 | 0.23 | 0.23 | 84 | 1009.1 |
| 20260508204055 | 24 | 142 | 4.8 | 8.0 | 0.00 | 0.23 | 0.23 | 84 | 1009.2 |
| 20260508203052 | 24 | 139 | 3.2 | 12.9 | 0.00 | 0.23 | 0.23 | 84 | 1009.2 |
| 20260508202605 | 24 | 150 | 8.0 | 12.9 | 0.00 | 0.23 | 0.23 | 84 | 1009.3 |
| 20260508202108 | 24 | 121 | 4.8 | 11.3 | 0.00 | 0.23 | 0.23 | 85 | 1009.4 |
| 20260508201534 | 23 | 173 | 6.4 | 17.7 | 0.00 | 0.23 | 0.23 | 84 | 1009.5 |
| 20260508201034 | 23 | 176 | 9.7 | 17.7 | 0.00 | 0.23 | 0.23 | 84 | 1009.7 |
| 20260508195522 | 23 | 140 | 4.8 | 8.0 | 0.00 | 0.23 | 0.23 | 84 | 1009.9 |
| 20260508195032 | 24 | 107 | 4.8 | 14.5 | 0.00 | 0.23 | 0.23 | 84 | 1009.9 |
| 20260508194612 | 24 | 90 | 6.4 | 14.5 | 0.00 | 0.23 | 0.23 | 85 | 1009.7 |
| 20260508194024 | 23 | 87 | 4.8 | 12.9 | 0.00 | 0.23 | 0.23 | 85 | 1009.8 |
| 20260508193607 | 23 | 145 | 6.4 | 12.9 | 0.00 | 0.23 | 0.23 | 85 | 1009.9 |
| 20260508193039 | 23 | 145 | 4.8 | 14.5 | 0.00 | 0.23 | 0.23 | 86 | 1009.9 |
| 20260508192543 | 23 | 159 | 9.7 | 14.5 | 0.00 | 0.23 | 0.23 | 85 | 1010.0 |
| 20260508191542 | 23 | 137 | 4.8 | 8.0 | 0.00 | 0.23 | 0.23 | 85 | 1010.1 |
| 20260508191051 | 23 | 108 | 4.8 | 6.4 | 0.00 | 0.23 | 0.23 | 85 | 1010.3 |
| 20260508190048 | 23 | 105 | 4.8 | 11.3 | 0.00 | 0.23 | 0.23 | 85 | 1010.4 |
| 20260508185558 | 23 | 91 | 6.4 | 11.3 | 0.00 | 0.23 | 0.23 | 86 | 1010.3 |
| 20260508184619 | 23 | 63 | 6.4 | 9.7 | 0.00 | 0.23 | 0.23 | 87 | 1010.4 |
| 20260508184102 | 22 | 99 | 1.6 | 11.3 | 0.00 | 0.23 | 0.23 | 86 | 1010.6 |
| 20260508183045 | 22 | 98 | 4.8 | 12.9 | 0.00 | 0.23 | 0.23 | 86 | 1010.8 |
| 20260508182534 | 22 | 83 | 4.8 | 12.9 | 0.00 | 0.23 | 0.23 | 87 | 1010.9 |
| 20260508181555 | 22 | 80 | 6.4 | 12.9 | 0.00 | 0.23 | 0.23 | 86 | 1010.9 |
| 20260508181107 | 22 | 26 | 6.4 | 9.7 | 0.00 | 0.23 | 0.23 | 87 | 1010.9 |
| 20260508180610 | 22 | 71 | 4.8 | 9.7 | 0.00 | 0.23 | 0.23 | 87 | 1011.0 |
| 20260508180034 | 21 | 119 | 4.8 | 12.9 | 0.00 | 0.23 | 0.23 | 87 | 1011.0 |
| 20260508175547 | 21 | 110 | 6.4 | 9.7 | 0.00 | 0.23 | 0.23 | 88 | 1011.1 |
| 20260508175031 | 21 | 113 | 4.8 | 11.3 | 0.00 | 0.23 | 0.23 | 88 | 1011.1 |
| 20260508174613 | 21 | 113 | 6.4 | 11.3 | 0.00 | 0.23 | 0.23 | 88 | 1011.1 |
| 20260508174027 | 21 | 138 | 4.8 | 11.3 | 0.00 | 0.23 | 0.23 | 88 | 1011.3 |
| 20260508173049 | 21 | 124 | 4.8 | 8.0 | 0.00 | 0.23 | 0.23 | 88 | 1011.4 |
| 20260508172600 | 21 | 128 | 4.8 | 12.9 | 0.00 | 0.23 | 0.23 | 88 | 1011.4 |
| 20260508172103 | 21 | 130 | 6.4 | 12.9 | 0.00 | 0.23 | 0.23 | 88 | 1011.5 |
| 20260508171530 | 20 | 120 | 4.8 | 9.7 | 0.00 | 0.23 | 0.23 | 88 | 1011.4 |
| 20260508171026 | 20 | 126 | 6.4 | 9.7 | 0.00 | 0.23 | 0.23 | 88 | 1011.6 |
| 20260508170053 | 20 | 137 | 3.2 | 11.3 | 0.00 | 0.23 | 0.23 | 88 | 1011.9 |
| 20260508165556 | 20 | 138 | 4.8 | 11.3 | 0.00 | 0.23 | 0.23 | 88 | 1012.0 |
| 20260508164621 | 20 | 145 | 3.2 | 11.3 | 0.00 | 0.23 | 0.23 | 88 | 1012.1 |
| 20260508164111 | 20 | 146 | 6.4 | 11.3 | 0.00 | 0.23 | 0.23 | 88 | 1012.1 |
| 20260508163620 | 20 | 159 | 4.8 | 8.0 | 0.00 | 0.23 | 0.23 | 88 | 1012.1 |
| 20260508163041 | 20 | 129 | 4.8 | 12.9 | 0.00 | 0.23 | 0.23 | 88 | 1012.0 |
| 20260508162551 | 20 | 77 | 6.4 | 16.1 | 0.00 | 0.23 | 0.23 | 88 | 1012.0 |
| 20260508161611 | 20 | 69 | 9.7 | 16.1 | 0.00 | 0.23 | 0.23 | 89 | 1011.8 |
| 20260508161041 | 20 | 70 | 9.7 | 16.1 | 0.00 | 0.23 | 0.23 | 89 | 1011.9 |
| 20260508155608 | 19 | 76 | 11.3 | 16.1 | 0.00 | 0.23 | 0.23 | 89 | 1011.9 |
| 20260508155119 | 19 | 62 | 8.0 | 14.5 | 0.00 | 0.23 | 0.23 | 89 | 1012.1 |
| 20260508154546 | 19 | 108 | 11.3 | 16.1 | 0.00 | 0.23 | 0.23 | 89 | 1012.2 |
| 20260508154049 | 19 | 87 | 11.3 | 20.9 | 0.00 | 0.23 | 0.23 | 89 | 1012.1 |
| 20260508153049 | 19 | 63 | 11.3 | 16.1 | 0.00 | 0.23 | 0.23 | 88 | 1012.1 |
| 20260508152533 | 19 | 84 | 9.7 | 19.3 | 0.00 | 0.23 | 0.23 | 89 | 1012.3 |
| 20260508151559 | 19 | 137 | 9.7 | 16.1 | 0.00 | 0.23 | 0.23 | 89 | 1012.3 |
| 20260508151045 | 18 | 84 | 9.7 | 16.1 | 0.00 | 0.23 | 0.23 | 89 | 1012.5 |
| 20260508150105 | 18 | 96 | 8.0 | 16.1 | 0.00 | 0.23 | 0.23 | 90 | 1012.6 |
| 20260508145616 | 18 | 80 | 8.0 | 14.5 | 0.00 | 0.23 | 0.23 | 90 | 1012.6 |
| 20260508145115 | 18 | 105 | 6.4 | 12.9 | 0.00 | 0.23 | 0.23 | 90 | 1012.8 |
| 20260508144525 | 18 | 85 | 8.0 | 12.9 | 0.00 | 0.23 | 0.23 | 90 | 1012.8 |
| 20260508144138 | 18 | 68 | 4.8 | 14.5 | 0.00 | 0.23 | 0.23 | 90 | 1012.8 |
| 20260508143621 | 18 | 77 | 11.3 | 14.5 | 0.00 | 0.23 | 0.23 | 90 | 1012.6 |
| 20260508143045 | 18 | 78 | 8.0 | 11.3 | 0.00 | 0.23 | 0.23 | 90 | 1012.7 |
| 20260508142555 | 17 | 78 | 8.0 | 9.7 | 0.00 | 0.23 | 0.23 | 91 | 1012.8 |
| 20260508141615 | 17 | 82 | 6.4 | 12.9 | 0.00 | 0.23 | 0.23 | 91 | 1012.6 |
| 20260508141122 | 17 | 80 | 4.8 | 12.9 | 0.00 | 0.23 | 0.23 | 91 | 1012.6 |
| 20260508140612 | 17 | 29 | 8.0 | 12.9 | 0.00 | 0.23 | 0.23 | 91 | 1012.5 |
| 20260508135530 | 17 | 71 | 9.7 | 12.9 | 0.00 | 0.23 | 0.23 | 91 | 1012.6 |
| 20260508134551 | 17 | 68 | 4.8 | 9.7 | 0.00 | 0.23 | 0.23 | 91 | 1012.8 |
| 20260508134101 | 17 | 53 | 4.8 | 9.7 | 0.00 | 0.23 | 0.23 | 90 | 1012.8 |
| 20260508133604 | 17 | 69 | 4.8 | 8.0 | 0.00 | 0.23 | 0.23 | 90 | 1012.8 |
| 20260508133034 | 17 | 75 | 4.8 | 8.0 | 0.00 | 0.23 | 0.23 | 90 | 1012.7 |
| 20260508132545 | 17 | 55 | 4.8 | 8.0 | 0.00 | 0.23 | 0.23 | 90 | 1012.6 |
| 20260508131605 | 17 | 49 | 3.2 | 9.7 | 0.00 | 0.23 | 0.23 | 90 | 1012.7 |
| 20260508131109 | 17 | 48 | 6.4 | 9.7 | 0.00 | 0.23 | 0.23 | 90 | 1012.8 |
| 20260508130553 | 17 | 37 | 3.2 | 9.7 | 0.00 | 0.23 | 0.23 | 90 | 1012.8 |
| 20260508130024 | 17 | 23 | 6.4 | 12.9 | 0.00 | 0.23 | 0.23 | 90 | 1012.9 |
| 20260508125526 | 17 | 40 | 4.8 | 12.9 | 0.00 | 0.23 | 0.23 | 89 | 1012.8 |
| 20260508124545 | 17 | 38 | 3.2 | 8.0 | 0.20 | 0.23 | 0.23 | 89 | 1012.9 |
| 20260508124054 | 17 | 39 | 3.2 | 8.0 | 0.20 | 0.23 | 0.23 | 89 | 1012.9 |
| 20260508123557 | 17 | 321 | 1.6 | 4.8 | 0.23 | 0.23 | 0.23 | 89 | 1012.9 |
| 20260508123030 | 17 | 321 | 1.6 | 3.2 | 0.23 | 0.23 | 0.23 | 88 | 1013.0 |
| 20260508122542 | 17 | 327 | 0.0 | 4.8 | 0.23 | 0.23 | 0.23 | 88 | 1013.0 |
| 20260508121601 | 17 | 327 | 3.2 | 4.8 | 0.23 | 0.23 | 0.23 | 88 | 1013.2 |
| 20260508121114 | 17 | 327 | 0.0 | 1.6 | 0.23 | 0.23 | 0.23 | 87 | 1013.2 |
| 20260508120616 | 17 | 327 | 0.0 | 3.2 | 0.23 | 0.23 | 0.23 | 87 | 1013.2 |
| 20260508120022 | 17 | 327 | 1.6 | 4.8 | 0.23 | 0.23 | 0.23 | 87 | 1013.2 |
| 20260508115525 | 17 | 327 | 1.6 | 4.8 | 0.23 | 0.23 | 0.23 | 87 | 1013.1 |
| 20260508115041 | 17 | 327 | 1.6 | 6.4 | 0.23 | 0.23 | 0.23 | 86 | 1012.9 |
| 20260508114524 | 17 | 323 | 3.2 | 6.4 | 0.13 | 0.13 | 0.13 | 86 | 1012.7 |
| 20260508114036 | 17 | 304 | 4.8 | 9.7 | 0.03 | 0.03 | 0.03 | 85 | 1012.9 |
| 20260508113620 | 17 | 310 | 4.8 | 9.7 | 0.03 | 0.03 | 0.03 | 85 | 1013.0 |
| 20260508113045 | 17 | 350 | 1.6 | 6.4 | 0.00 | 0.00 | 0.00 | 85 | 1012.5 |
| 20260508112558 | 17 | 10 | 0.0 | 1.6 | 0.00 | 0.00 | 0.00 | 85 | 1012.7 |
| 20260508112117 | 17 | 10 | 0.0 | 4.8 | 0.00 | 0.00 | 0.00 | 85 | 1012.6 |
| 20260508111540 | 17 | 5 | 0.0 | 6.4 | 0.00 | 0.00 | 0.00 | 85 | 1012.6 |
| 20260508111025 | 17 | 355 | 3.2 | 6.4 | 0.00 | 0.00 | 0.00 | 84 | 1012.6 |
| 20260508110045 | 17 | 342 | 0.0 | 8.0 | 0.00 | 0.00 | 0.00 | 85 | 1012.4 |
| 20260508105555 | 17 | 355 | 4.8 | 8.0 | 0.00 | 0.00 | 0.00 | 85 | 1012.4 |
| 20260508104620 | 17 | 24 | 3.2 | 8.0 | 0.00 | 0.00 | 0.00 | 84 | 1012.4 |
| 20260508104109 | 17 | 32 | 3.2 | 8.0 | 0.00 | 0.00 | 0.00 | 85 | 1012.4 |
| 20260508103612 | 17 | 34 | 4.8 | 8.0 | 0.00 | 0.00 | 0.00 | 84 | 1012.5 |
| 20260508103039 | 17 | 57 | 4.8 | 8.0 | 0.00 | 0.00 | 0.00 | 84 | 1012.7 |
| 20260508102549 | 17 | 53 | 4.8 | 8.0 | 0.00 | 0.00 | 0.00 | 85 | 1012.8 |
| 20260508101542 | 17 | 48 | 3.2 | 8.0 | 0.00 | 0.00 | 0.00 | 84 | 1012.9 |
| 20260508101053 | 17 | 60 | 4.8 | 9.7 | 0.00 | 0.00 | 0.00 | 84 | 1012.7 |
| 20260508100051 | 17 | 74 | 6.4 | 8.0 | 0.00 | 0.00 | 0.00 | 84 | 1012.6 |
| 20260508095604 | 17 | 32 | 4.8 | 6.4 | 0.00 | 0.00 | 0.00 | 84 | 1012.7 |